Location: Little Chesterford
(52.0500°N, 0.1833°E)
Time: 19:57:58
(UTC+00:00)

ADEOS Rocket - Pass Details

Date: 26 September 2023
Orbit: 858 x 1306 km, 98.7° (Epoch: 09 December)

Event Time Altitude Azimuth Distance (km) Brightness Sun altitude
Exits shadow 18:18:16 - 118° (ESE) 4,006 5.6 -5.3°
Reaches altitude 10° 18:20:30 10° 110° (ESE) 3,308 5.1 -5.7°
Maximum altitude 18:26:52 30° 54° (NE) 2,107 4.4 -6.6°
Drops below altitude 10° 18:32:58 10° 358° (N) 3,155 5.8 -7.6°
Sets 18:35:50 0° 348° (NNW) 4,062 6.5 -8.0°
